MST,Max TemperatureF,Mean TemperatureF,Min TemperatureF,Max Dew PointF,MeanDew PointF,Min DewpointF,Max Humidity, Mean Humidity, Min Humidity, Max Sea Level PressureIn, Mean Sea Level PressureIn, Min Sea Level PressureIn, Max VisibilityMiles, Mean VisibilityMiles, Min VisibilityMiles, Max Wind SpeedMPH, Mean Wind SpeedMPH, Max Gust SpeedMPH,PrecipitationIn, CloudCover, Events, WindDirDegrees
2013-1-1,16,7,-2,6,-1,-7,79,73,66,30.48,30.41,30.30,10,10,9,13,4,15,0.00,5,,283
2013-1-2,26,15,4,10,3,-3,83,70,56,30.54,30.45,30.40,10,10,10,15,8,16,0.00,0,,271
2013-1-3,16,6,-5,2,-4,-8,79,65,50,30.59,30.51,30.28,10,10,10,15,2,16,0.00,0,,317
2013-1-4,14,3,-8,2,-4,-12,95,78,61,30.55,30.46,30.20,10,9,1,12,2,13,0.00,0,,303
2013-1-5,12,3,-7,0,-5,-12,87,75,63,30.63,30.56,30.44,10,10,9,8,2,8,0.00,0,,352
2013-1-6,16,6,-4,6,-1,-8,87,73,59,30.50,30.29,29.95,10,10,9,10,3,10,0.00,0,,291
2013-1-7,28,13,-2,15,2,-7,84,74,58,30.28,30.12,29.83,10,10,8,14,3,20,0.00,0,,296
2013-1-8,41,29,17,20,17,12,68,55,41,30.23,30.03,29.83,10,10,10,39,13,45,0.00,1,,267
2013-1-9,35,27,18,21,17,13,81,67,52,30.28,30.15,29.90,10,10,10,24,7,31,0.00,0,,245
2013-1-10,41,29,16,23,17,10,88,68,48,29.92,29.62,29.37,10,10,10,29,10,37,0.00,0,,214
2013-1-11,32,15,-2,21,3,-6,84,71,58,30.16,29.63,29.33,10,5,0,36,18,43,0.06,7,Snow,25
2013-1-12,7,-1,-9,-2,-5,-13,87,78,69,30.30,30.22,29.94,10,8,3,10,3,12,T,6,Snow,256
2013-1-13,6,-3,-13,-1,-7,-16,87,78,69,30.42,30.30,29.96,10,8,2,10,4,12,0.02,6,Snow,263
2013-1-14,-1,-8,-15,-7,-13,-20,83,74,64,30.49,30.40,30.06,10,10,10,9,3,10,0.00,3,,300
2013-1-15,10,1,-9,0,-6,-14,79,74,69,30.51,30.46,30.40,10,10,9,12,2,13,0.00,4,,276
2013-1-16,21,11,0,7,1,-6,80,68,56,30.65,30.55,30.29,10,10,10,9,2,13,0.00,0,,323
2013-1-17,17,8,-1,6,2,-3,95,78,61,30.73,30.62,30.48,10,10,6,9,2,9,0.00,0,,27
2013-1-18,50,25,0,14,6,-3,87,53,19,30.47,30.29,30.04,10,10,10,36,10,58,0.00,0,,285
2013-1-19,40,30,19,18,11,5,60,45,29,30.31,30.24,30.16,10,10,10,32,10,41,0.00,0,,250
2013-1-20,32,21,10,18,11,5,76,59,42,30.44,30.35,30.21,10,10,10,15,4,17,0.00,0,,358
2013-1-21,33,19,5,18,10,4,91,71,50,30.37,30.29,30.19,10,10,10,15,3,16,0.00,0,,332
2013-1-22,35,21,7,17,10,1,80,63,45,30.30,30.24,30.18,10,10,10,13,3,14,0.00,0,,196
2013-1-23,37,26,14,19,13,8,74,59,43,30.27,30.22,30.08,10,10,10,12,2,13,0.00,0,,309
2013-1-24,46,31,16,27,18,10,80,63,45,30.21,30.12,30.04,10,10,10,23,7,30,0.00,0,,252
2013-1-25,42,33,23,24,20,16,75,62,48,30.19,30.12,30.06,10,10,10,23,9,29,0.00,0,,269
2013-1-26,39,27,15,27,21,11,80,67,54,30.08,29.94,29.77,10,10,10,13,4,15,0.00,0,,285
2013-1-27,46,34,22,29,24,19,88,71,53,29.79,29.70,29.59,10,10,10,26,7,33,0.00,1,,33
2013-1-28,28,23,18,20,17,2,84,63,41,29.87,29.78,29.71,10,8,2,24,8,31,0.03,6,Snow,17
2013-1-29,24,18,11,12,6,1,70,58,45,30.18,29.96,29.80,10,10,10,23,9,30,0.00,3,,318
2013-1-30,34,19,4,16,9,1,83,65,47,30.08,30.00,29.93,10,10,10,24,5,31,0.00,1,,54
2013-1-31,46,31,15,20,15,10,80,53,26,30.15,30.08,30.02,10,10,10,32,14,44,0.00,0,,302